Precipitable_Water
0.67 0.62 0.55 0.60 0.64 0.64 0.63 0.60 0.59 0.68 0.77 0.70 0.65 0.66 0.74 0.93 1.00 1.00 1.07 1.14 1.28 1.36 1.48 1.56 1.57 1.64 1.67 1.77 1.80 1.88 1.89 1.88 1.87 1.79 1.57 1.45 1.53 1.76 1.89 2.00 2.12 2.10 2.05 1.99
0.62 0.56 0.64 0.67 0.69 0.66 0.65 0.58 0.58 0.67 0.72 0.71 0.61 0.59 0.72 0.81 0.87 0.94 1.01 1.05 1.16 1.29 1.38 1.50 1.54 1.56 1.55 1.64 1.74 1.87 1.91 1.92 1.90 1.80 1.68 1.62 1.64 1.74 1.89 2.02 2.06 2.18 2.20 2.18
0.57 0.61 0.68 0.64 0.65 0.63 0.64 0.59 0.62 0.60 0.64 0.72 0.62 0.50 0.63 0.78 0.86 0.95 1.04 1.09 1.14 1.16 1.23 1.40 1.48 1.43 1.52 1.57 1.70 1.75 1.85 1.88 1.79 1.79 1.76 1.74 1.75 1.86 1.82 1.89 1.94 1.96 2.05 2.10
0.58 0.65 0.64 0.62 0.62 0.66 0.57 0.69 0.66 0.63 0.54 0.42 0.56 0.36 0.51 0.65 0.70 0.81 0.92 1.03 1.04 1.08 1.14 1.33 1.42 1.38 1.42 1.51 1.62 1.66 1.71 1.65 1.61 1.69 1.76 1.73 1.72 1.69 1.81 1.89 1.92 1.98 2.03 1.84
0.50 0.55 0.57 0.57 0.62 0.69 0.64 0.73 0.66 0.63 0.53 0.47 0.44 0.41 0.47 0.62 0.58 0.69 0.84 0.91 1.06 1.06 1.06 1.21 1.37 1.41 1.46 1.46 1.46 1.53 1.67 1.62 1.72 1.71 1.77 1.81 1.83 1.93 1.99 1.98 1.90 1.79 1.87 1.93
0.54 0.65 0.60 0.61 0.67 0.70 0.71 0.66 0.64 0.62 0.52 0.37 0.41 0.41 0.43 0.49 0.56 0.68 0.81 1.00 1.02 1.02 1.06 1.18 1.33 1.39 1.37 1.47 1.50 1.59 1.67 1.71 1.79 1.86 1.85 1.82 1.82 1.78 1.74 1.69 1.70 1.83 1.92 2.00
0.43 0.48 0.62 0.65 0.56 0.66 0.64 0.60 0.49 0.46 0.43 0.36 0.46 0.41 0.44 0.57 0.68 0.73 0.76 0.86 1.02 1.07 1.03 1.13 1.23 1.25 1.31 1.34 1.43 1.52 1.63 1.68 1.78 1.81 1.80 1.87 1.83 1.82 1.77 1.71 1.66 1.66 1.76 1.91
0.25 0.26 0.47 0.60 0.56 0.51 0.55 0.55 0.52 0.44 0.43 0.42 0.51 0.36 0.42 0.68 0.76 0.73 0.80 0.83 1.04 1.09 1.09 1.15 1.24 1.27 1.36 1.42 1.51 1.60 1.74 1.70 1.69 1.86 1.88 1.81 1.78 1.83 1.76 1.71 1.69 1.66 1.66 1.74
0.25 0.24 0.41 0.53 0.59 0.56 0.50 0.46 0.65 0.58 0.61 0.46 0.45 0.47 0.58 0.67 0.68 0.72 0.80 0.94 0.97 1.00 1.11 1.18 1.26 1.35 1.40 1.51 1.61 1.71 1.92 1.78 1.68 1.84 1.79 1.69 1.72 1.72 1.61 1.53 1.38 1.36 1.42 1.45
0.25 0.21 0.29 0.37 0.44 0.48 0.52 0.50 0.43 0.42 0.34 0.32 0.41 0.43 0.38 0.51 0.56 0.70 0.82 0.89 0.99 1.04 1.17 1.19 1.30 1.34 1.46 1.53 1.66 1.79 1.86 1.75 1.83 1.76 1.67 1.63 1.60 1.47 1.27 1.08 0.94 0.85 0.84 0.80
0.28 0.23 0.23 0.29 0.30 0.34 0.49 0.42 0.36 0.37 0.33 0.27 0.26 0.31 0.47 0.52 0.59 0.65 0.83 0.93 1.01 1.06 1.08 1.17 1.31 1.44 1.45 1.55 1.70 1.83 1.78 1.64 1.68 1.56 1.50 1.39 1.23 1.08 0.93 0.80 0.74 0.70 0.69 0.71
0.28 0.25 0.19 0.21 0.28 0.33 0.43 0.36 0.35 0.26 0.25 0.34 0.34 0.27 0.47 0.58 0.67 0.73 0.83 0.98 1.07 1.16 1.17 1.25 1.34 1.44 1.50 1.56 1.71 1.62 1.51 1.44 1.47 1.44 1.28 1.13 1.03 0.90 0.78 0.75 0.74 0.72 0.66 0.71
0.28 0.23 0.19 0.19 0.24 0.27 0.28 0.32 0.31 0.32 0.31 0.26 0.24 0.24 0.44 0.62 0.65 0.76 0.79 0.97 1.11 1.20 1.23 1.31 1.34 1.40 1.52 1.57 1.62 1.59 1.49 1.52 1.38 1.21 1.10 1.02 1.01 0.95 0.80 0.72 0.70 0.70 0.69 0.69
0.33 0.25 0.22 0.19 0.21 0.25 0.27 0.31 0.31 0.30 0.28 0.30 0.29 0.28 0.33 0.51 0.55 0.70 0.78 0.94 1.06 1.18 1.24 1.29 1.29 1.34 1.49 1.60 1.54 1.52 1.51 1.49 1.10 1.11 1.01 0.96 1.01 0.94 0.82 0.71 0.65 0.65 0.69 0.70
0.32 0.26 0.25 0.25 0.26 0.28 0.29 0.27 0.29 0.28 0.31 0.29 0.30 0.34 0.35 0.45 0.52 0.67 0.81 0.92 1.00 1.08 1.17 1.22 1.25 1.31 1.41 1.46 1.50 1.50 1.42 1.07 1.03 1.03 0.98 0.97 1.01 0.95 0.86 0.75 0.65 0.61 0.66 0.71
0.41 0.26 0.27 0.25 0.27 0.27 0.27 0.31 0.32 0.32 0.33 0.33 0.39 0.36 0.48 0.51 0.59 0.69 0.78 0.86 0.93 1.04 1.14 1.25 1.37 1.43 1.46 1.47 1.46 1.34 1.00 1.00 1.04 1.04 1.00 1.04 1.03 0.98 0.93 0.82 0.73 0.70 0.66 0.66
0.45 0.31 0.25 0.22 0.28 0.29 0.26 0.32 0.35 0.36 0.40 0.36 0.38 0.43 0.53 0.53 0.60 0.65 0.72 0.89 0.96 1.04 1.16 1.26 1.29 1.45 1.49 1.47 1.38 1.07 0.99 1.06 1.06 1.04 1.07 1.11 1.12 1.04 0.97 0.90 0.81 0.75 0.69 0.67
0.49 0.43 0.32 0.25 0.27 0.21 0.33 0.52 0.49 0.39 0.42 0.50 0.53 0.61 0.58 0.60 0.68 0.78 0.85 0.94 1.03 1.11 1.19 1.27 1.37 1.42 1.46 1.44 1.31 1.15 1.09 1.08 1.07 1.08 1.12 1.18 1.18 1.14 1.04 0.95 0.91 0.87 0.80 0.66
0.60 0.49 0.42 0.30 0.25 0.31 0.41 0.48 0.46 0.40 0.35 0.55 0.57 0.65 0.67 0.69 0.76 0.80 0.93 1.04 1.11 1.15 1.20 1.28 1.36 1.47 1.44 1.36 1.29 1.22 1.10 1.10 1.13 1.16 1.20 1.24 1.25 1.21 1.13 0.99 0.91 0.87 0.80 0.70
0.60 0.59 0.49 0.44 0.31 0.25 0.37 0.56 0.65 0.59 0.34 0.62 0.68 0.67 0.71 0.85 0.66 0.78 0.98 1.04 1.06 1.11 1.22 1.32 1.44 1.46 1.42 1.32 1.34 1.27 1.27 1.28 1.26 1.30 1.32 1.35 1.33 1.26 1.12 1.06 0.99 0.89 0.83 0.64
0.43 0.49 0.43 0.47 0.43 0.46 0.57 0.64 0.70 0.39 0.33 0.57 0.70 0.71 0.74 0.78 0.87 1.01 1.12 1.15 1.15 1.23 1.33 1.49 1.54 1.45 1.28 1.35 1.34 1.28 1.31 1.33 1.40 1.45 1.45 1.42 1.37 1.22 1.11 1.08 1.05 0.94 0.82 0.66
0.45 0.43 0.43 0.48 0.44 0.39 0.74 0.72 0.51 0.55 0.68 0.68 0.74 0.80 0.83 0.89 1.02 1.13 1.20 1.19 1.26 1.26 1.36 1.45 1.41 1.36 1.30 1.38 1.34 1.24 1.27 1.40 1.46 1.48 1.45 1.36 1.25 1.10 1.02 0.96 0.89 0.80 0.73 0.65
0.48 0.56 0.52 0.55 0.51 0.77 0.86 0.80 0.87 0.88 0.81 0.81 0.82 0.91 0.93 0.91 1.04 1.04 1.06 1.17 1.25 1.32 1.37 1.47 1.43 1.34 1.33 1.37 1.31 1.21 1.28 1.37 1.37 1.35 1.25 1.16 1.10 1.02 0.97 0.83 0.73 0.69 0.70 0.69
0.68 0.79 0.62 0.63 0.66 0.74 0.83 0.92 0.99 1.01 0.98 1.02 1.01 0.93 0.93 0.87 0.96 1.06 1.18 1.31 1.34 1.33 1.34 1.31 1.24 1.26 1.19 1.24 1.22 1.22 1.30 1.35 1.33 1.13 1.08 1.01 0.93 0.81 0.75 0.75 0.76 0.72 0.71 0.68
0.69 0.78 0.71 0.67 0.71 0.77 0.86 0.94 1.00 1.07 1.15 1.17 1.16 1.07 1.00 1.02 1.04 1.14 1.26 1.26 1.25 1.24 1.32 1.28 1.22 1.13 1.06 1.14 1.20 1.33 1.39 1.24 1.06 1.00 0.94 0.86 0.78 0.73 0.72 0.75 0.76 0.75 0.76 0.74
0.81 0.75 0.65 0.60 0.75 0.74 0.80 0.93 1.03 1.07 1.14 1.27 1.15 1.06 1.07 1.11 1.05 1.11 1.10 1.20 1.21 1.24 1.19 1.11 1.10 1.12 1.17 1.26 1.27 1.22 1.21 1.14 1.00 0.86 0.78 0.73 0.71 0.73 0.73 0.70 0.72 0.77 0.73 0.74
Wind_Speed
7 4 4 4 4 3 1 2 2 3 5 3 5 6 6 4 4 5 5 5 5 4 4 4 4 3 5 10 11 13 14 10 11 10 7 7 7 6 4 4 4 5 5 5
7 7 7 3 4 3 4 4 6 7 5 4 5 8 6 5 6 6 6 6 6 5 5 5 5 5 5 7 10 13 13 12 11 11 9 7 7 6 6 5 5 6 6 8
11 10 7 6 6 5 5 4 5 7 7 6 7 7 5 7 7 6 6 7 7 7 6 5 5 5 5 7 8 11 12 12 11 12 10 8 7 6 6 7 7 8 9 9
11 11 10 7 7 6 5 7 7 8 5 5 5 6 8 6 6 6 6 6 7 6 5 4 3 5 5 6 7 9 10 12 11 11 11 9 7 6 7 7 9 10 10 10
13 11 11 9 9 7 8 7 8 7 3 5 5 4 6 7 5 5 6 8 7 4 4 2 3 5 7 6 5 8 9 10 10 9 9 8 7 7 7 8 8 8 9 11
13 12 11 12 8 8 7 8 7 5 4 6 5 2 6 6 7 4 5 5 3 2 2 1 4 6 7 7 7 8 8 9 8 8 8 7 6 6 7 8 9 9 9 10
13 15 14 13 11 9 6 7 7 7 6 8 7 4 7 8 9 3 3 4 4 2 1 3 5 7 7 7 7 7 7 7 7 7 7 6 7 7 8 9 10 10 10 10
15 15 17 15 13 12 9 7 7 8 7 9 5 7 7 7 7 3 5 6 4 3 3 3 6 7 8 8 7 7 7 7 7 6 5 5 6 7 8 9 10 9 9 9
9 12 12 16 14 11 9 8 8 7 7 9 9 10 8 7 5 5 7 6 6 4 4 4 6 7 8 8 7 8 6 8 6 5 4 4 5 7 8 9 9 9 9 10
12 9 12 12 14 14 12 10 7 7 9 11 10 10 9 8 8 7 6 5 3 3 4 5 6 7 8 7 6 7 4 5 5 3 3 4 6 7 8 9 9 9 9 9
12 10 12 11 14 16 13 12 8 9 8 9 10 12 11 10 9 6 6 4 3 2 3 5 5 7 8 8 7 8 5 2 4 3 4 4 6 8 9 9 9 9 9 10
15 10 11 15 13 13 14 14 12 10 14 13 11 13 11 11 9 9 7 5 3 1 1 3 5 6 7 7 8 7 5 5 4 3 3 4 6 8 9 10 10 10 10 10
13 12 11 11 10 11 14 13 10 9 10 14 12 15 11 11 8 10 9 7 5 4 2 3 4 5 6 6 7 6 6 5 5 4 3 4 6 8 10 11 11 11 11 11
12 12 13 14 13 9 12 12 12 9 8 10 14 15 15 14 12 11 10 9 8 8 7 6 5 6 6 6 7 6 6 6 6 5 4 6 8 10 11 12 12 12 12 12
10 14 14 14 12 14 14 13 12 12 11 10 13 13 15 15 13 14 11 10 9 9 7 7 7 7 7 8 8 8 8 8 7 6 7 8 9 11 12 12 12 12 12 13
10 12 13 14 14 14 14 12 14 15 13 16 13 15 14 14 12 13 13 12 12 11 10 8 8 8 8 9 10 10 10 10 9 9 9 9 10 12 13 14 14 13 13 13
10 9 10 13 12 12 13 15 15 16 17 14 13 15 13 14 15 15 14 12 13 13 12 11 10 11 11 12 12 13 13 12 11 11 11 11 12 14 15 15 15 15 15 16
12 10 11 11 11 13 15 14 15 17 19 18 17 16 16 15 13 12 14 14 13 13 13 12 11 11 12 15 17 16 15 15 14 14 14 15 16 17 17 17 17 17 17 17
14 13 11 12 13 15 15 14 13 12 16 17 17 15 11 10 10 10 12 14 13 13 13 13 13 11 12 12 15 16 15 15 16 16 17 18 19 19 20 20 20 20 19 18
14 13 14 14 14 17 17 14 12 11 15 14 14 13 11 10 9 13 13 14 14 14 14 14 15 15 14 11 14 15 15 15 16 18 19 20 21 22 22 22 22 21 21 20
14 15 16 16 17 18 18 14 11 10 14 13 13 14 12 11 10 10 10 12 14 15 16 16 16 17 14 14 14 14 15 17 18 19 20 22 22 23 23 23 23 23 22 20
14 14 17 17 15 18 15 13 15 14 13 12 13 13 12 11 11 10 11 13 15 15 15 15 14 12 11 12 14 16 17 18 19 21 22 23 23 24 24 24 23 23 21 19
17 17 16 17 19 19 18 18 18 15 14 13 12 14 13 12 13 13 13 14 15 15 15 15 15 14 14 15 16 16 18 20 21 22 22 22 23 23 23 23 23 22 20 19
16 16 16 14 15 16 17 17 16 14 14 13 13 13 13 12 12 12 13 14 14 14 14 14 13 13 14 15 16 17 18 20 21 21 22 23 23 23 23 22 21 21 20 19
11 9 11 14 15 12 12 14 14 14 13 14 13 12 10 10 10 9 9 9 10 11 13 12 12 12 13 14 16 17 18 19 20 21 22 23 23 22 21 21 20 21 21 20
10 11 10 11 10 12 13 11 14 13 14 13 13 11 10 9 9 8 8 10 12 13 12 12 11 12 14 15 16 18 19 20 20 21 21 21 21 20 20 20 21 21 21 21
Wind_Direction
205 180 193 200 192 224 295 297 321 304 310 302 300 313 295 292 302 298 302 291 287 321 309 295 270 269 240 216 215 209 202 208 206 208 205 205 206 207 214 228 243 238 234 238
211 214 221 211 215 255 294 294 311 309 316 302 323 305 292 283 277 279 279 288 286 286 315 299 276 248 235 209 206 204 208 209 207 202 205 206 210 220 237 247 249 254 255 255
208 219 217 221 232 266 309 275 300 294 317 310 305 321 324 315 306 293 290 295 295 278 281 303 280 236 213 201 203 200 202 199 201 203 205 212 218 233 249 259 265 265 265 262
225 235 232 237 242 248 275 273 290 296 309 302 326 302 325 328 293 290 289 295 295 282 279 289 255 206 190 186 189 191 194 199 198 202 206 214 224 245 264 266 281 270 266 267
230 229 230 235 242 247 255 268 292 302 273 320 316 331 313 356 327 280 286 302 295 283 268 269 197 181 178 173 170 179 179 180 187 193 203 218 236 255 269 277 282 282 274 266
231 238 229 226 243 250 264 285 291 280 277 312 315 292 318 330 331 331 334 320 317 296 274 193 169 161 164 166 162 164 171 177 188 195 206 218 245 264 275 283 288 288 280 278
242 236 236 234 243 255 273 290 285 285 292 266 315 295 281 316 330 315 321 318 307 297 215 174 172 169 163 165 165 172 179 184 193 200 212 236 252 268 282 291 291 287 283 284
234 252 228 230 231 235 253 248 240 261 272 285 298 275 287 311 331 326 326 309 279 257 229 208 185 180 180 180 184 187 193 193 188 203 226 243 260 277 292 299 298 290 285 285
229 244 231 224 228 226 246 251 242 249 269 282 282 283 292 309 323 316 313 310 262 237 221 209 188 188 189 195 204 204 230 183 196 209 224 253 277 289 297 302 303 295 286 284
234 246 230 229 231 238 238 239 252 264 256 267 278 273 266 280 277 284 294 300 223 231 226 206 198 195 198 202 210 212 203 210 201 213 244 276 293 300 302 303 303 300 291 286
227 232 245 237 234 231 238 247 260 248 253 253 265 266 259 257 250 257 264 262 231 234 199 199 198 201 208 213 213 212 223 221 199 230 263 286 299 305 306 304 301 298 292 286
230 232 237 237 240 237 231 235 242 253 259 261 257 269 265 269 251 238 248 248 234 232 190 201 197 199 206 207 210 219 228 212 227 243 271 295 310 314 312 307 302 298 295 289
228 241 252 266 254 240 233 235 242 264 262 249 248 263 265 253 254 244 239 239 234 227 232 229 209 207 206 210 216 221 222 223 221 237 273 311 321 320 318 313 305 298 293 289
228 235 229 235 232 226 223 230 239 251 258 253 252 265 263 248 251 246 241 234 233 241 240 240 226 215 215 217 222 223 225 228 226 244 275 300 314 321 321 316 308 301 293 288
239 241 236 241 236 238 244 240 239 245 255 257 267 253 255 246 248 234 236 231 232 240 234 227 221 224 231 231 233 232 230 222 231 252 276 293 308 318 320 318 315 307 298 291
263 252 241 246 241 235 239 246 245 256 261 270 267 267 265 263 251 231 235 228 230 229 229 227 229 233 235 242 244 241 231 231 242 259 273 286 300 311 318 320 316 308 301 295
257 249 246 247 249 240 251 249 257 267 261 257 259 264 268 261 251 229 224 228 225 227 227 230 240 246 251 253 250 241 237 240 248 262 274 283 293 302 308 312 313 311 304 295
249 251 251 240 239 242 248 257 265 268 259 257 266 274 263 255 245 231 227 228 228 231 231 237 247 252 257 270 248 239 238 244 253 263 272 279 287 293 298 302 304 304 302 297
248 241 247 241 242 255 254 259 274 277 265 253 257 266 266 239 230 242 236 236 232 233 235 240 245 244 277 271 224 230 240 248 257 266 273 278 284 290 292 294 298 299 300 297
246 244 242 244 244 244 255 258 269 271 268 247 249 252 237 234 244 252 240 227 228 231 239 243 240 260 277 258 231 233 241 249 260 268 275 280 283 287 289 290 293 296 297 297
254 251 242 246 249 260 255 252 254 263 268 250 247 243 235 234 246 242 241 225 230 242 248 249 250 277 262 250 233 240 248 258 266 274 278 279 282 286 287 288 290 291 292 291
249 246 247 247 251 257 245 250 245 262 270 255 242 235 229 233 239 247 251 241 245 254 254 254 262 263 255 244 244 251 257 263 271 278 280 281 284 286 287 287 289 289 287 284
256 248 252 243 248 256 252 254 257 259 257 253 245 236 234 238 242 250 254 250 255 254 251 259 256 259 262 258 255 258 262 268 274 279 280 282 285 286 286 287 287 287 284 283
252 248 250 254 255 253 252 246 246 252 250 251 248 243 247 247 255 261 254 249 251 253 250 256 258 261 265 263 261 264 268 273 276 278 281 284 285 285 285 285 284 284 282 282
243 236 241 247 255 259 248 241 243 252 252 242 243 240 239 239 252 249 246 243 244 250 254 250 257 262 266 267 268 271 274 277 279 281 284 285 286 285 284 283 282 282 281 279
236 235 230 238 244 252 251 258 243 244 237 236 234 233 234 235 232 242 245 252 266 259 249 251 261 267 270 271 273 276 280 281 281 284 285 286 286 286 284 284 283 283 281 279